Regional Weather Roundup
Issued by NWS

Home | Current Version | Previous Version | Graphics & Text | Print | Product List | Glossary On
Versions: 1 2 3 4 5 6 7 8 9 10 11 12 13 14 15 16 17 18 19 20 21 22 23 24 25 26 27 28 29 30 31 32 33 34 35 36 37 38 39 40 41 42 43 44 45 46 47 48 49 50
000
ASUS43 KOAX 290410
RWRNE

WEATHER ROUNDUP FOR NEBRASKA
NATIONAL WEATHER SERVICE OMAHA NE
1100 PM CDT SAT MAY 28 2016

NOTES: SATELLITE DATA IS BEING USED TO AUGMENT CLOUD COVER ABOVE
       12000 FEET.
       "FAIR" INDICATES FEW OR NO CLOUDS BELOW 12,000 FEET WITH NO
       SIGNIFICANT WEATHER AND/OR OBSTRUCTIONS TO VISIBILITY.

  * THESE STATIONS DO NOT REPORT WEATHER SUCH AS RAIN...SNOW OR FOG.

NEZ001>004-019>022-054>056-290500-
NEBRASKA PANHANDLE

CITY           SKY/WX    TMP DP  RH WIND       PRES   REMARKS
SCOTTSBLUFF    CLEAR     57  47  69 E7        30.07R
ALLIANCE       CLEAR     51  47  86 N6        30.07
CHADRON        CLEAR     45  43  93 SW8       30.05R
KIMBALL        PTCLDY    53  45  75 CALM      30.11R
SIDNEY         CLOUDY    50  46  86 CALM      30.10R
$$

NEZ057>060-069>072-079>082-290500-
SOUTHWEST NEBRASKA

CITY           SKY/WX    TMP DP  RH WIND       PRES   REMARKS
NORTH PLATTE   TSTM      56  52  86 NW16G31   30.09R FOG
IMPERIAL       CLOUDY    64  55  72 E8        30.05R
LEXINGTON      PTCLDY    63  51  65 N17G24    30.04R
MCCOOK         CLEAR     61  51  70 CALM      30.02R
OGALLALA       CLOUDY    54  50  84 CALM      30.05R
$$

NEZ005>010-023>029-035>040-094-290500-
NORTH CENTRAL NEBRASKA

CITY           SKY/WX    TMP DP  RH WIND       PRES   REMARKS
VALENTINE      LGT RAIN  59  51  75 NW14      30.01F
AINSWORTH      LGT RAIN  61  55  79 W13G24    30.04R
BROKEN BOW     CLOUDY    62  55  77 E7        30.01R
O`NEILL        CLEAR     58  57  94 CALM      30.00R
ORD            CLEAR     58  55  90 CALM      29.99R
THEDFORD       CLOUDY    62  52  68 N5        30.03S
$$

NEZ041-046>049-061>064-073>077-083>087-290500-
SOUTH CENTRAL NEBRASKA

CITY           SKY/WX    TMP DP  RH WIND       PRES   REMARKS
GRAND ISLAND   CLEAR     62  56  80 CALM      30.01R
AURORA         CLEAR     64  58  82 CALM      30.00R
HASTINGS       CLEAR     63  55  75 CALM      30.01R
HEBRON         PTCLDY    65  58  79 CALM      30.00R
HOLDREGE       CLEAR     64  52  64 SW5       30.01R
KEARNEY *      CLEAR     64  54  68 CALM      30.02R
YORK           CLEAR     63  57  82 CALM      30.00R
$$

NEZ011>018-030>034-042>045-290500-
NORTHEAST NEBRASKA

CITY           SKY/WX    TMP DP  RH WIND       PRES   REMARKS
NORFOLK        CLOUDY    56  54  93 W3        29.98R
ALBION         CLEAR     55  52  89 CALM      30.00R
BLAIR          CLEAR     62  57  84 W5        29.97R
FREMONT        CLEAR     61  55  82 W7        29.99R
TEKAMAH        CLEAR     62  56  80 W10       29.95R
WAYNE          CLEAR     58  56  94 W6        29.98R
$$

NEZ050>053-065>068-078-088>093-290500-
SOUTHEAST NEBRASKA

CITY           SKY/WX    TMP DP  RH WIND       PRES   REMARKS
LINCOLN        CLEAR     64  57  78 CALM      29.99R
OMAHA EPPLEY   CLEAR     65  56  72 W8        29.96R
BEATRICE       CLEAR     64  58  82 CALM      29.98R
FALLS CITY     CLEAR     67  60  78 SW7       29.97R
NEBRASKA CITY  CLEAR     63  58  86 NW6       29.98R
PLATTSMOUTH    CLEAR     65  58  78 W5        29.98R
$$

NEZ044-045-051>053-067-290500-
OMAHA AREA

CITY           SKY/WX    TMP DP  RH WIND       PRES   REMARKS
OMAHA EPPLEY   CLEAR     65  56  72 W8        29.96R
BLAIR          CLEAR     62  57  84 W5        29.97R
FREMONT        CLEAR     61  55  82 W7        29.99R
MILLARD        CLEAR     64  57  76 NW6       29.97R
OFFUTT AFB     CLEAR     62  56  83 NW7       29.96R
PLATTSMOUTH    CLEAR     65  58  78 W5        29.98R
WAHOO          FAIR      63  56  79 NW6       29.98R
$$



USA.gov is the U.S. government's official web portal to all federal, state and local government web resources and services.